Tracking 23762 objects as of 20-Oct-2021
HD Live streaming from Space Station
objects crossing your sky now

COSMOS 2491 DEB

Track COSMOS 2491 DEB now!
10-day predictions


NORAD ID: 45127
Int'l Code: 2013-076Z
Perigee: 1,396.8 km
Apogee: 1,505.7 km
Inclination: 82.5 °
Period: 114.8 minutes
Semi major axis: 7822 km
RCS: Unknown
Launch date: December 25, 2013
Source: Commonwealth of Independent States (former USSR) (CIS)
Launch site: PLESETSK MISSILE AND SPACE COMPLEX (PKMTR)

Note: This is SATELLITE DEBRIS
aabbcc
Your satellite tracking list
Your tracking list is empty




NASA's NSSDC Master Catalog

Two Line Element Set (TLE):
1 45127U 13076Z   21291.30202898  .00001185  00000-0  71825-2 0  9993
2 45127  82.4606 140.4474 0069638  58.2289 302.5557 12.54886793 79069
Source of the keplerian elements: AFSPC